This is the latest recevied weather packets stored in our database for station/object SV9TNF-55. If no packets are shown the sender has not sent any weather packets the latest 10 day(s).
| Time | Temp. | Humidity | Pressure | Rain* | Wind** | Luminosity | Snow |
|---|---|---|---|---|---|---|---|
| 1788400667 | 22.22° C | 32% | 1013.7 hPa | 0 mm | 2.24 m/s, 292° | - | - |
| 1788400067 | 22.22° C | 32% | 1013.8 hPa | 0 mm | 1.79 m/s, 292° | - | - |
| 1788399467 | 22.22° C | 32% | 1013.9 hPa | 0 mm | 2.68 m/s, 292° | - | - |
| 1788398866 | 22.22° C | 33% | 1014 hPa | 0 mm | 2.68 m/s, 270° | - | - |
| 1788398266 | 21.67° C | 33% | 1014.1 hPa | 0 mm | 2.24 m/s, 292° | - | - |
| 1788397666 | 21.67° C | 32% | 1014.1 hPa | 0 mm | 2.24 m/s, 292° | - | - |
| 1788397066 | 21.11° C | 30% | 1014.2 hPa | 0 mm | 0.89 m/s, 270° | - | - |
| 1788396466 | 21.11° C | 29% | 1014.3 hPa | 0 mm | 0.45 m/s, 292° | - | - |
| 1788395866 | 21.11° C | 28% | 1014.2 hPa | 0 mm | 0.89 m/s, 292° | - | - |
| 1788395266 | 21.11° C | 27% | 1014.2 hPa | 0 mm | 0.45 m/s, 292° | - | - |
| 1788394666 | 21.11° C | 26% | 1014.3 hPa | 0 mm | 0.45 m/s, 270° | - | - |
| 1788394065 | 20.56° C | 25% | 1014.3 hPa | 0 mm | 0 m/s | - | - |
| 1788393466 | 21.67° C | 24% | 1014.3 hPa | 0 mm | 0.89 m/s, 315° | - | - |
| 1788392865 | 20.56° C | 24% | 1014.4 hPa | 0 mm | 0.45 m/s, 315° | - | - |
| 1788392266 | 21.11° C | 23% | 1014.4 hPa | 0 mm | 0.45 m/s, 270° | - | - |
| 1788391665 | 21.11° C | 22% | 1014.4 hPa | 0 mm | 0.45 m/s, 67° | - | - |
| 1788391065 | 21.11° C | 22% | 1014.5 hPa | 0 mm | 0.89 m/s, 292° | - | - |
| 1788390465 | 20.56° C | 23% | 1014.5 hPa | 0 mm | 0.45 m/s, 292° | - | - |
| 1788389864 | 20° C | 24% | 1014.7 hPa | 0 mm | 0.45 m/s, 247° | - | - |
| 1788389264 | 21.11° C | 23% | 1014.6 hPa | 0 mm | 0.45 m/s, 135° | - | - |
| 1788388664 | 20° C | 24% | 1014.6 hPa | 0 mm | 0.45 m/s, 225° | - | - |
| 1788388064 | 20.56° C | 23% | 1014.8 hPa | 0 mm | 0 m/s | - | - |
| 1788387464 | 20° C | 25% | 1014.9 hPa | 0 mm | 0 m/s | - | - |
| 1788386871 | 20.56° C | 24% | 1015.1 hPa | 0 mm | 0 m/s | - | - |
| 1788386264 | 21.67° C | 23% | 1015.1 hPa | 0 mm | 0.45 m/s, 270° | - | - |
* Rain latest hour (hover to see other rain measurements)
** Current wind speed in m/s (hover to see current wind gust speed)